GSAT0208 (GALILEO 11)

Last updated on Sun Dec 14 2025 00:02:36 GMT+0000 (Coordinated Universal Time)

1 41175U 15079B 25346.72530985 .00000004 00000+0 00000+0 0 9991 2 41175 55.7111 106.3784 0001880 358.3144 1.6545 1.70474307 62017
UTC large
Height (km)
Speed (km/s)
/
Latitude / Longitude
Inclination (degrees)
Orbital Period (minutes)
Azimuth
Elevation
Range (km)
Doppler Factor

Next 0 passes for location: London (51.5072 / 0.1276)

Sorry there are no passes over London.